When you browse on this site, cookies collect data to enhance your experience and personalize the content and advertising you see.
Visit our Privacy Policy to learn more. By continuing to use the site, you agree to this use of cookies and data.
  • In Österreich
  • Länderverzeichnis
  • Für 7 Tage
  • Wassertemperatur
  • Satellitenkarten
  • Wetterkarte
  • News
  • Widgets
  • user-avatar
    Anmelden

    Stündliche Wetter Osaka

    Heute, 17 Februar, Sonntag

    Zeit Temperatur Niederschläge Wind Luftdruck Luftfeuchtigkeit
    00:00 +4°C° 0 mm 3 m/S 762 mmHg 64%
    01:00 +5°C° 0 mm 2 m/S 763 mmHg 65%
    02:00 +5°C° 0 mm 2 m/S 763 mmHg 66%
    03:00 +5°C° 0 mm 2 m/S 763 mmHg 69%
    04:00 +5°C° 0 mm 2 m/S 763 mmHg 69%
    05:00 +4°C° 0 mm 2 m/S 763 mmHg 70%
    06:00 +4°C° 0 mm 2 m/S 764 mmHg 70%
    07:00 +5°C° 0 mm 2 m/S 764 mmHg 67%
    08:00 +5°C° 0 mm 2 m/S 764 mmHg 64%
    09:00 +4°C° 0 mm 3 m/S 765 mmHg 60%
    10:00 +5°C° 0 mm 3 m/S 764 mmHg 55%
    11:00 +7°C° 0 mm 3 m/S 764 mmHg 50%
    12:00 +8°C° 0 mm 3 m/S 764 mmHg 44%
    13:00 +8°C° 0 mm 3 m/S 764 mmHg 44%
    14:00 +8°C° 0 mm 3 m/S 764 mmHg 43%
    15:00 +9°C° 0 mm 3 m/S 764 mmHg 43%
    16:00 +8°C° 0 mm 3 m/S 764 mmHg 45%
    17:00 +7°C° 0 mm 3 m/S 765 mmHg 47%
    18:00 +7°C° 0 mm 3 m/S 765 mmHg 49%
    19:00 +5°C° 0 mm 3 m/S 766 mmHg 50%
    20:00 +6°C° 0 mm 2 m/S 766 mmHg 52%
    21:00 +5°C° 0 mm 2 m/S 767 mmHg 53%
    22:00 +5°C° 0 mm 2 m/S 767 mmHg 54%
    23:00 +6°C° 0 mm 1 m/S 767 mmHg 54%

    Morgen, 18 Februar, Montag

    Zeit Temperatur Niederschläge Wind Luftdruck Luftfeuchtigkeit
    00:00 +6°C° 0 mm 1 m/S 768 mmHg 55%
    01:00 +5°C° 0 mm 1 m/S 768 mmHg 56%
    02:00 +5°C° 0 mm 1 m/S 768 mmHg 57%
    03:00 +5°C° 0 mm 1 m/S 768 mmHg 57%
    04:00 +5°C° 0 mm 1 m/S 768 mmHg 58%
    05:00 +5°C° 0 mm 1 m/S 768 mmHg 59%
    06:00 +4°C° 0 mm 1 m/S 768 mmHg 60%
    07:00 +5°C° 0 mm 1 m/S 769 mmHg 57%
    08:00 +5°C° 0 mm 0 m/S 769 mmHg 53%
    09:00 +6°C° 0 mm 0 m/S 769 mmHg 50%
    10:00 +7°C° 0 mm 0 m/S 769 mmHg 45%
    11:00 +10°C° 0 mm 1 m/S 769 mmHg 41%
    12:00 +11°C° 0 mm 1 m/S 769 mmHg 36%
    13:00 +11°C° 0 mm 1 m/S 769 mmHg 34%
    14:00 +12°C° 0 mm 1 m/S 768 mmHg 31%
    15:00 +13°C° 0 mm 1 m/S 768 mmHg 29%
    16:00 +12°C° 0 mm 1 m/S 768 mmHg 29%
    17:00 +12°C° 0 mm 1 m/S 769 mmHg 29%
    18:00 +10°C° 0 mm 0 m/S 769 mmHg 29%
    19:00 +10°C° 0 mm 0 m/S 770 mmHg 31%
    20:00 +10°C° 0 mm 1 m/S 770 mmHg 33%
    21:00 +10°C° 0 mm 1 m/S 770 mmHg 35%
    22:00 +9°C° 0 mm 1 m/S 770 mmHg 37%
    23:00 +9°C° 0 mm 1 m/S 770 mmHg 39%

    übermorgen, 19 Februar, Dienstag

    Zeit Temperatur Niederschläge Wind Luftdruck Luftfeuchtigkeit
    00:00 +8°C° 0 mm 1 m/S 770 mmHg 40%
    01:00 +8°C° 0 mm 1 m/S 770 mmHg 41%
    02:00 +8°C° 0 mm 1 m/S 770 mmHg 41%
    03:00 +8°C° 0 mm 1 m/S 770 mmHg 42%
    04:00 +8°C° 0 mm 1 m/S 770 mmHg 42%
    05:00 +8°C° 0 mm 1 m/S 769 mmHg 42%
    06:00 +8°C° 0 mm 1 m/S 769 mmHg 42%
    07:00 +8°C° 0 mm 1 m/S 769 mmHg 42%
    08:00 +9°C° 0 mm 1 m/S 769 mmHg 42%
    09:00 +10°C° 0 mm 1 m/S 769 mmHg 41%
    10:00 +10°C° 0.2 mm 1 m/S 769 mmHg 44%
    11:00 +11°C° 0.2 mm 1 m/S 769 mmHg 47%
    12:00 +11°C° 0.2 mm 1 m/S 769 mmHg 50%
    13:00 +12°C° 0.2 mm 1 m/S 768 mmHg 54%
    14:00 +12°C° 0.2 mm 1 m/S 768 mmHg 58%
    15:00 +12°C° 0.2 mm 1 m/S 767 mmHg 62%
    16:00 +12°C° 0.3 mm 1 m/S 767 mmHg 66%
    17:00 +12°C° 0.3 mm 1 m/S 767 mmHg 71%
    18:00 +11°C° 0.3 mm 1 m/S 767 mmHg 75%
    19:00 +11°C° 0.3 mm 1 m/S 767 mmHg 77%
    20:00 +11°C° 0.3 mm 1 m/S 767 mmHg 79%
    21:00 +11°C° 0.3 mm 1 m/S 767 mmHg 81%
    22:00 +10°C° 0.2 mm 2 m/S 767 mmHg 82%
    23:00 +10°C° 0.2 mm 2 m/S 766 mmHg 83%

    20 Februar, Mittwoch

    Zeit Temperatur Niederschläge Wind Luftdruck Luftfeuchtigkeit
    00:00 +9°C° 0.2 mm 2 m/S 766 mmHg 83%
    01:00 +9°C° 0 mm 2 m/S 765 mmHg 84%
    02:00 +9°C° 0 mm 2 m/S 765 mmHg 84%
    03:00 +9°C° 0 mm 2 m/S 764 mmHg 85%
    04:00 +9°C° 0.1 mm 2 m/S 764 mmHg 86%
    05:00 +9°C° 0.1 mm 2 m/S 763 mmHg 87%
    06:00 +9°C° 0.1 mm 2 m/S 763 mmHg 88%
    07:00 +11°C° 0.4 mm 1 m/S 763 mmHg 87%
    08:00 +11°C° 0.4 mm 1 m/S 763 mmHg 87%
    09:00 +11°C° 0.4 mm 1 m/S 763 mmHg 86%
    10:00 +12°C° 0.1 mm 1 m/S 762 mmHg 82%
    11:00 +13°C° 0.1 mm 1 m/S 762 mmHg 78%
    12:00 +14°C° 0.1 mm 1 m/S 761 mmHg 75%
    13:00 +14°C° 0.3 mm 1 m/S 761 mmHg 78%
    14:00 +14°C° 0.3 mm 1 m/S 761 mmHg 81%
    15:00 +13°C° 0.3 mm 2 m/S 760 mmHg 85%
    16:00 +13°C° 0.3 mm 2 m/S 760 mmHg 87%
    17:00 +13°C° 0.3 mm 2 m/S 761 mmHg 89%
    18:00 +13°C° 0.3 mm 2 m/S 761 mmHg 92%
    19:00 +13°C° 0.3 mm 2 m/S 762 mmHg 91%
    20:00 +13°C° 0.3 mm 2 m/S 762 mmHg 91%
    21:00 +13°C° 0.3 mm 2 m/S 763 mmHg 90%
    22:00 +11°C° 0.1 mm 3 m/S 763 mmHg 84%
    23:00 +10°C° 0.1 mm 4 m/S 764 mmHg 78%

    21 Februar, Donnerstag

    Zeit Temperatur Niederschläge Wind Luftdruck Luftfeuchtigkeit
    00:00 +8°C° 0.1 mm 4 m/S 764 mmHg 72%
    01:00 +7°C° 0 mm 4 m/S 764 mmHg 71%
    02:00 +7°C° 0 mm 4 m/S 764 mmHg 70%
    03:00 +7°C° 0 mm 3 m/S 764 mmHg 69%
    04:00 +7°C° 0 mm 3 m/S 765 mmHg 69%
    05:00 +5°C° 0 mm 3 m/S 765 mmHg 69%
    06:00 +6°C° 0 mm 2 m/S 765 mmHg 70%
    07:00 +7°C° 0 mm 3 m/S 765 mmHg 67%
    08:00 +6°C° 0 mm 4 m/S 766 mmHg 64%
    09:00 +6°C° 0 mm 4 m/S 766 mmHg 61%
    10:00 +7°C° 0 mm 4 m/S 766 mmHg 57%
    11:00 +8°C° 0 mm 4 m/S 766 mmHg 53%
    12:00 +10°C° 0 mm 4 m/S 765 mmHg 50%
    13:00 +10°C° 0 mm 4 m/S 765 mmHg 49%
    14:00 +10°C° 0 mm 4 m/S 765 mmHg 48%
    15:00 +9°C° 0 mm 5 m/S 765 mmHg 47%
    16:00 +10°C° 0 mm 4 m/S 765 mmHg 50%
    17:00 +8°C° 0 mm 4 m/S 766 mmHg 54%
    18:00 +7°C° 0 mm 4 m/S 766 mmHg 58%
    19:00 +6°C° 0 mm 4 m/S 766 mmHg 61%
    20:00 +7°C° 0 mm 3 m/S 767 mmHg 63%
    21:00 +5°C° 0 mm 3 m/S 767 mmHg 66%
    22:00 +6°C° 0 mm 2 m/S 767 mmHg 67%
    23:00 +6°C° 0 mm 2 m/S 767 mmHg 68%

    22 Februar, Freitag

    Zeit Temperatur Niederschläge Wind Luftdruck Luftfeuchtigkeit
    00:00 +5°C° 0 mm 2 m/S 767 mmHg 69%
    01:00 +5°C° 0 mm 2 m/S 767 mmHg 70%
    02:00 +5°C° 0 mm 2 m/S 767 mmHg 70%
    03:00 +6°C° 0 mm 1 m/S 767 mmHg 71%
    04:00 +6°C° 0 mm 1 m/S 767 mmHg 71%
    05:00 +6°C° 0 mm 1 m/S 767 mmHg 72%
    06:00 +5°C° 0 mm 1 m/S 767 mmHg 72%
    07:00 +5°C° 0 mm 2 m/S 767 mmHg 68%
    08:00 +6°C° 0 mm 2 m/S 767 mmHg 64%
    09:00 +7°C° 0 mm 2 m/S 767 mmHg 60%
    10:00 +9°C° 0 mm 2 m/S 767 mmHg 52%
    11:00 +10°C° 0 mm 2 m/S 766 mmHg 44%
    12:00 +13°C° 0 mm 2 m/S 766 mmHg 36%
    13:00 +14°C° 0 mm 2 m/S 765 mmHg 34%
    14:00 +13°C° 0 mm 3 m/S 765 mmHg 31%
    15:00 +14°C° 0 mm 3 m/S 764 mmHg 28%
    16:00 +13°C° 0 mm 3 m/S 764 mmHg 32%
    17:00 +13°C° 0 mm 3 m/S 764 mmHg 36%
    18:00 +12°C° 0 mm 3 m/S 764 mmHg 39%
    19:00 +11°C° 0 mm 3 m/S 764 mmHg 41%
    20:00 +12°C° 0 mm 2 m/S 764 mmHg 43%
    21:00 +12°C° 0 mm 2 m/S 764 mmHg 44%
    22:00 +11°C° 0.1 mm 1 m/S 763 mmHg 51%
    23:00 +11°C° 0.1 mm 1 m/S 763 mmHg 57%
    Mehr zeigen